Date String (YYYY-MM-DD hh:mm:ss) UTC,Instrument flags,Ambient pressure (hPa),Sample flow (lpm),Bypass flow (lpm),Sample temperature (°C),Ambient temperature (°C),ASC tube jacket temperature (°C),LED temperature (°C),Box temperature (°C),Sample RH (%),Span deviation,Mass concentration (μg/m³),Mass concentration (μg/m³),Mass concentration (μg/m³)
DateTimeUTC,F1_M11,P_M11,Q1_M11,Q2_M11,T1_M11,T2_M11,T3_M11,T4_M11,T5_M11,U1_M11,ZSPAN_M11,X0_M11,X2_M11,X1_M11
2022-06-24 22:00:00,,0826.0,4.99,0.00,29.3,28.1,00.0,37.9,31.2,26.5,0000.0,0010.08,0002.27,0001.10
2022-06-24 22:01:00,,0826.0,5.00,0.00,29.2,27.3,00.0,37.8,31.0,25.8,0000.0,0009.91,0002.27,0001.10
2022-06-24 22:02:00,,0826.0,5.01,0.00,29.1,26.9,00.0,37.8,30.8,26.2,0000.0,0009.73,0002.25,0001.10
2022-06-24 22:03:00,,0826.0,5.00,0.00,29.1,26.9,00.0,37.8,30.8,26.2,0000.0,0009.30,0002.19,0001.10
2022-06-24 22:04:00,,0826.0,5.00,0.00,29.0,27.0,00.0,37.8,30.8,25.8,0000.0,0008.58,0002.15,0001.09
2022-06-24 22:05:00,,0826.0,5.00,0.00,29.0,27.1,00.0,37.8,30.8,24.9,0000.0,0008.00,0002.07,0001.08
2022-06-24 22:06:00,,0825.9,5.00,0.00,29.0,27.3,00.0,37.8,30.9,25.6,0000.0,0007.92,0002.04,0001.08
2022-06-24 22:07:00,,0825.9,5.00,0.00,29.0,27.5,00.0,37.8,30.9,25.5,0000.0,0007.75,0001.95,0001.07
2022-06-24 22:08:00,,0826.0,5.00,0.00,29.0,27.6,00.0,37.8,31.0,25.2,0000.0,0007.56,0001.88,0001.06
2022-06-24 22:09:00,,0826.0,5.00,0.00,29.0,27.8,00.0,37.8,31.0,24.6,0000.0,0007.55,0001.81,0001.05
2022-06-24 22:10:00,,0826.0,5.02,0.00,29.1,27.9,00.0,37.8,31.1,24.8,0000.0,0007.99,0001.74,0001.05
2022-06-24 22:11:00,,0825.9,5.00,0.00,29.1,28.1,00.0,37.9,31.1,24.7,0000.0,0007.15,0001.65,0001.04
2022-06-24 22:12:00,,0826.0,5.00,0.00,29.1,28.2,00.0,37.9,31.2,24.9,0000.0,0006.89,0001.59,0001.03
2022-06-24 22:13:00,,0826.0,4.99,0.00,29.2,28.3,00.0,37.9,31.2,24.6,0000.0,0006.82,0001.54,0001.02
2022-06-24 22:14:00,,0825.9,5.00,0.00,29.2,28.4,00.0,37.9,31.3,24.2,0000.0,0006.14,0001.56,0001.03
2022-06-24 22:15:00,,0826.0,5.00,0.00,29.3,28.3,00.0,37.9,31.3,24.5,0000.0,0006.21,0001.57,0001.02
2022-06-24 22:16:00,,0825.9,5.00,0.00,29.2,27.6,00.0,37.9,31.1,24.6,0000.0,0006.43,0001.55,0001.02
2022-06-24 22:17:00,,0825.9,5.00,0.00,29.1,26.9,00.0,37.8,30.9,24.5,0000.0,0007.27,0001.54,0001.01
2022-06-24 22:18:00,,0825.9,5.01,0.00,29.1,26.8,00.0,37.8,30.8,24.1,0000.0,0007.79,0001.55,0001.01
2022-06-24 22:19:00,,0825.8,5.00,0.00,29.0,26.9,00.0,37.8,30.8,23.4,0000.0,0008.56,0001.58,0001.01
2022-06-24 22:20:00,,0825.8,5.01,0.00,29.0,27.1,00.0,37.8,30.8,23.2,0000.0,0008.92,0001.58,0001.01
2022-06-24 22:21:00,,0826.0,5.01,0.00,29.0,27.2,00.0,37.8,30.9,23.5,0000.0,0008.29,0001.56,0001.02
2022-06-24 22:22:00,,0826.1,5.00,0.00,29.0,27.4,00.0,37.8,30.9,23.7,0000.0,0007.90,0001.59,0001.03
2022-06-24 22:23:00,,0825.9,5.00,0.00,29.0,27.6,00.0,37.8,31.0,23.3,0000.0,0007.67,0001.61,0001.04
2022-06-24 22:24:00,,0825.9,5.00,0.00,29.1,27.8,00.0,37.8,31.0,23.2,0000.0,0007.68,0001.64,0001.05
2022-06-24 22:25:00,,0826.0,5.00,0.00,29.1,27.9,00.0,37.8,31.1,23.1,0000.0,0007.66,0001.64,0001.05
2022-06-24 22:26:00,,0825.7,5.00,0.00,29.1,28.1,00.0,37.9,31.1,22.1,0000.0,0007.63,0001.64,0001.07
2022-06-24 22:27:00,,0826.0,5.01,0.00,29.2,28.2,00.0,37.9,31.2,22.0,0000.0,0007.28,0001.63,0001.08
2022-06-24 22:28:00,,0826.0,5.01,0.00,29.2,28.3,00.0,37.9,31.2,21.8,0000.0,0006.20,0001.62,0001.07
2022-06-24 22:29:00,,0825.9,5.00,0.00,29.2,28.4,00.0,37.9,31.3,21.7,0000.0,0005.48,0001.62,0001.08
2022-06-24 22:30:00,,0825.7,5.00,0.00,29.3,28.0,00.0,37.9,31.2,22.1,0000.0,0004.03,0001.63,0001.09
2022-06-24 22:31:00,,0825.7,5.00,0.00,29.2,27.2,00.0,37.9,31.0,22.6,0000.0,0003.22,0001.64,0001.11
2022-06-24 22:32:00,,0825.7,5.00,0.00,29.1,26.9,00.0,37.8,30.9,22.5,0000.0,0002.77,0001.64,0001.11
2022-06-24 22:33:00,,0825.6,4.99,0.00,29.1,26.9,00.0,37.8,30.8,21.7,0000.0,0002.75,0001.64,0001.12
2022-06-24 22:34:00,,0825.6,4.99,0.00,29.0,27.1,00.0,37.8,30.9,22.0,0000.0,0002.69,0001.60,0001.11
2022-06-24 22:35:00,,0825.6,5.01,0.00,29.0,27.2,00.0,37.8,30.9,22.3,0000.0,0002.76,0001.64,0001.12
2022-06-24 22:36:00,,0825.6,5.00,0.00,29.0,27.4,00.0,37.8,30.9,22.4,0000.0,0002.76,0001.67,0001.14
2022-06-24 22:37:00,,0825.6,5.01,0.00,29.1,27.6,00.0,37.8,31.0,22.2,0000.0,0002.96,0001.69,0001.15
2022-06-24 22:38:00,,0825.6,5.01,0.00,29.1,27.8,00.0,37.8,31.0,21.6,0000.0,0003.09,0001.68,0001.15
2022-06-24 22:39:00,,0825.7,5.00,0.00,29.1,27.9,00.0,37.8,31.1,21.5,0000.0,0003.24,0001.74,0001.18
2022-06-24 22:40:00,,0825.6,5.00,0.00,29.1,28.1,00.0,37.9,31.1,21.2,0000.0,0003.38,0001.77,0001.19
2022-06-24 22:41:00,,0825.6,5.00,0.00,29.2,28.2,00.0,37.9,31.2,21.3,0000.0,0004.07,0001.78,0001.19
2022-06-24 22:42:00,,0825.6,5.00,0.00,29.2,28.3,00.0,37.9,31.3,21.5,0000.0,0004.03,0001.76,0001.19
2022-06-24 22:43:00,,0825.6,5.00,0.00,29.2,28.1,00.0,37.9,31.2,21.1,0000.0,0003.94,0001.75,0001.20
2022-06-24 22:44:00,,0825.6,5.00,0.00,29.2,27.6,00.0,37.9,31.1,21.5,0000.0,0004.10,0001.79,0001.21
2022-06-24 22:45:00,,0825.6,5.01,0.00,29.2,27.5,00.0,37.9,31.0,21.3,0000.0,0004.24,0001.86,0001.22
2022-06-24 22:46:00,,0825.6,5.01,0.00,29.2,27.5,00.0,37.9,31.0,21.4,0000.0,0004.51,0001.88,0001.23
2022-06-24 22:47:00,,0825.6,5.01,0.00,29.1,27.6,00.0,37.9,31.0,21.8,0000.0,0004.55,0001.82,0001.24
2022-06-24 22:48:00,,0825.6,5.00,0.00,29.2,27.7,00.0,37.9,31.1,22.1,0000.0,0004.62,0001.83,0001.25
2022-06-24 22:49:00,,0825.6,5.00,0.00,29.2,27.9,00.0,37.9,31.1,22.4,0000.0,0004.46,0001.84,0001.26
2022-06-24 22:50:00,,0825.6,4.99,0.00,29.2,28.0,00.0,37.9,31.2,21.9,0000.0,0004.59,0001.84,0001.27
2022-06-24 22:51:00,,0825.6,5.00,0.00,29.2,28.2,00.0,38.0,31.2,21.5,0000.0,0006.47,0001.82,0001.26
2022-06-24 22:52:00,,0825.6,4.99,0.00,29.3,28.3,00.0,38.0,31.3,21.5,0000.0,0007.01,0001.82,0001.28
2022-06-24 22:53:00,,0825.6,5.00,0.00,29.3,28.2,00.0,38.0,31.3,21.3,0000.0,0007.60,0001.82,0001.29
2022-06-24 22:54:00,,0825.6,5.00,0.00,29.3,27.5,00.0,37.9,31.1,21.1,0000.0,0007.77,0001.87,0001.30
2022-06-24 22:55:00,,0825.7,5.01,0.00,29.2,27.0,00.0,37.9,30.9,21.3,0000.0,0007.73,0001.86,0001.31
2022-06-24 22:56:00,,0825.7,5.01,0.00,29.1,27.0,00.0,37.9,30.9,21.7,0000.0,0007.71,0001.85,0001.32
2022-06-24 22:57:00,,0825.7,4.99,0.00,29.1,27.1,00.0,37.9,30.9,22.3,0000.0,0007.72,0001.84,0001.33
2022-06-24 22:58:00,,0825.7,5.00,0.00,29.1,27.2,00.0,37.8,30.9,22.7,0000.0,0007.91,0001.87,0001.33
2022-06-24 22:59:00,,0825.7,5.00,0.00,29.1,27.4,00.0,37.8,30.9,23.3,0000.0,0007.90,0001.89,0001.32
